Back to catalog

DMSP 5D-2 F13 DEB

AliveSSO
NORAD 40517·DEBRIS·🇺🇸 United States

Launched Mar 24, 1995 from Vandenberg Space Force Base

Loading…

Next Passes (next 24 hours)

TLE

FreshSource: Space-Track

Epoch: Sep 13, 2026, 02:56 UTC

1 40517U 95015DD  26256.12289232  .00004422  00000-0  10406-2 0  9992
2 40517  98.5834 311.4824 0017776 213.6405 146.3664 14.54769740598951

Track DMSP 5D-2 F13 DEB in real time with AllMySat

Download on the App Store